Tracking 29781 objects as of 15-Oct-2024
HD Live streaming from Space Station
objects crossing your sky now

THORAD AGENA D DEB

Track THORAD AGENA D DEB now!
10-day predictions


NORAD ID: 4977
Int'l Code: 1970-025GX
Perigee: 1,056.5 km
Apogee: 1,085.5 km
Inclination: 100.1 °
Period: 106.5 minutes
Semi major axis: 7441 km
RCS: 0.0367 m2 (small)
Launch date: April 8, 1970
Source: United States (US)
Launch site: AIR FORCE WESTERN TEST RANGE (AFWTR)

Note: This is SATELLITE DEBRIS
Your satellite tracking list
Your tracking list is empty




NASA's NSSDC Master Catalog

Two Line Element Set (TLE):
1 04977U 70025GX  24288.83836493  .00000220  00000-0  40329-3 0  9994
2 04977 100.0701  49.2388 0019448 318.5984 193.6961 13.52290681687470
Source of the keplerian elements: AFSPC